Find Hawk 13B

NORAD ID: 67396 Int'l Des: 2026-004 Owner: HE360 Country: US Constellation: hawkeye-360 operational
LEOCIRCULARRETROGRADESSO

リアルタイム位置

3D地球を読み込み中...

Hawk 13Bについて

説明を読み込み中...

次回通過

Passes for default location (London). Set your location on the main map for personalized predictions.

高度履歴

Loading altitude history...

軌道要素

1 67396U 26004AK 26121.22366232 .00006040 00000-0 29374-3 0 9999
2 67396 97.4520 120.9504 0008232 129.1746 231.0221 15.18746602 16633
Epoch: May 1, 2026 • Age: 8 hours

現在のステータス

高度 514.0 km
速度 7.61 km/s
衛星直下点 22.97°N, 58°E
打ち上げ日 Jan 11, 2026
運用期間 0.3 years
タイプ other

技術仕様

分類 Payload
質量 31.00 kg
乾燥質量 30.00 kg
総質量 31.00 kg
長さ 0.45 m
直径 0.30 m
スパン 1.00 m
形状 Box + 2 pan
製造者 UTIAS
バスタイプ Hawk2G
フェーズステータス In Orbit
所有者/国 HE360/US

Most Searched